Weather History for Erie, CO

Change the Weather History Date:

Thursday, August 29, 2013

  Actual Average (KBJC) Record (KBJC)
Temperature  
Mean Temperature 76 °F -  
Max Temperature 95 °F 82 °F 94 °F (1990)
Min Temperature 56 °F 57 °F 46 °F (1987)
Cooling Degree Days 10    
Growing Degree Days 26 (Base 50)    
Moisture  
Dew Point 44 °F    
Average Humidity 36    
Maximum Humidity 70    
Minimum Humidity 13    
Precipitation  
Precipitation 0.00 in - - ()
Sea Level Pressure  
Sea Level Pressure 30.18 in    
Wind  
Wind Speed 2 mph (NNW)    
Max Wind Speed 14 mph    
Max Gust Speed 25 mph    
Visibility 10 miles    
Events Thunderstorm    
Averages and records for this station are not official NWS values.
T = Trace of Precipitation, MM = Missing Value Source: NWS Daily Summary

Daily Weather History Graph

Daily Weather History Graph

Search for Another Location

Airport:

Trip Planner

Search our weather history database for the weather conditions in past years. The results will help you decide how hot, cold, wet, or windy it might be!

Date:

Astronomy

Aug. 29, 2013 Rise Set
Actual Time 6:25 AM MDT 7:35 PM MDT
Civil Twilight 5:57 AM MDT 8:03 PM MDT
Nautical Twilight 5:24 AM MDT 8:37 PM MDT
Astronomical Twilight 4:49 AM MDT 9:11 PM MDT
Moon 12:18 AM MDT (8/29) 3:06 PM MDT (8/29)
Length of Visible Light 14h 06m
Length of Day
13h 10m
Last Quarter, 37% of the Moon is Illuminated
Aug 29
Last Quarter
Sep 5
New
Sep 12
First Quarter
Sep 19
Full
Sep 26
Last Quarter

Hourly Weather History & Observations

Time (MDT) Temp. Dew Point Humidity Pressure Visibility Wind Dir Wind Speed Gust Speed Precip Events Conditions
12:14 AM 69.3 °F 46.6 °F 44% 30.16 in 10.0 mi Calm Calm - N/A   Clear
12:34 AM 68.2 °F 46.4 °F 46% 30.16 in 10.0 mi Calm Calm - N/A   Clear
12:54 AM 66.9 °F 47.3 °F 49% 30.17 in 10.0 mi ESE 3.5 mph - N/A   Clear
1:14 AM 65.5 °F 48.7 °F 55% 30.17 in 10.0 mi Calm Calm - N/A   Clear
1:34 AM 64.4 °F 49.1 °F 58% 30.16 in 10.0 mi Calm Calm - N/A   Clear
1:54 AM 64.8 °F 48.4 °F 55% 30.16 in 10.0 mi Calm Calm - N/A   Clear
2:14 AM 63.9 °F 48.6 °F 57% 30.16 in 10.0 mi SSW 5.8 mph - N/A   Clear
2:34 AM 63.7 °F 46.8 °F 54% 30.16 in 10.0 mi SSW 3.5 mph - N/A   Clear
2:54 AM 64.4 °F 46.4 °F 52% 30.16 in 10.0 mi Calm Calm - N/A   Clear
3:14 AM 61.5 °F 46.9 °F 59% 30.15 in 10.0 mi Calm Calm - N/A   Clear
3:34 AM 61.9 °F 46.6 °F 57% 30.15 in 10.0 mi Calm Calm - N/A   Clear
3:54 AM 61.3 °F 47.3 °F 60% 30.15 in 10.0 mi Calm Calm - N/A   Clear
4:14 AM 59.9 °F 46.9 °F 62% 30.15 in 10.0 mi Calm Calm - N/A   Clear
4:34 AM 58.3 °F 46.6 °F 65% 30.15 in 10.0 mi Calm Calm - N/A   Clear
4:54 AM 59.0 °F 46.6 °F 63% 30.15 in 10.0 mi Calm Calm - N/A   Clear
5:14 AM 58.1 °F 46.8 °F 66% 30.15 in 10.0 mi Calm Calm - N/A   Clear
5:34 AM 57.0 °F 47.3 °F 70% 30.15 in 10.0 mi Calm Calm - N/A   Clear
5:54 AM 56.7 °F 47.1 °F 70% 30.16 in 10.0 mi Calm Calm - N/A   Clear
6:14 AM 57.2 °F 47.5 °F 70% 30.17 in 10.0 mi Calm Calm - N/A   Clear
6:34 AM 57.6 °F 47.3 °F 69% 30.17 in 10.0 mi Calm Calm - N/A   Clear
6:54 AM 57.4 °F 47.7 °F 70% 30.17 in 10.0 mi Calm Calm - N/A   Clear
7:14 AM 59.9 °F 49.3 °F 68% 30.18 in 10.0 mi Calm Calm - N/A   Clear
7:34 AM 63.9 °F 49.6 °F 60% 30.18 in 10.0 mi Calm Calm - N/A   Clear
7:54 AM 67.8 °F 49.6 °F 52% 30.19 in 10.0 mi Calm Calm - N/A   Clear
8:14 AM 71.8 °F 49.1 °F 45% 30.20 in 10.0 mi Calm Calm - N/A   Clear
8:34 AM 75.4 °F 47.5 °F 37% 30.20 in 10.0 mi Calm Calm - N/A   Clear
8:54 AM 78.4 °F 44.4 °F 30% 30.20 in 10.0 mi Calm Calm - N/A   Clear
9:14 AM 79.5 °F 44.1 °F 28% 30.21 in 10.0 mi Calm Calm - N/A   Clear
9:34 AM 81.9 °F 43.5 °F 26% 30.21 in 10.0 mi Calm Calm - N/A   Clear
9:54 AM 83.8 °F 43.0 °F 24% 30.21 in 10.0 mi Calm Calm - N/A   Clear
10:14 AM 85.8 °F 42.8 °F 22% 30.21 in 10.0 mi Calm Calm - N/A   Clear
10:34 AM 87.1 °F 42.8 °F 21% 30.21 in 10.0 mi Calm Calm - N/A   Clear
10:54 AM 88.9 °F 43.0 °F 20% 30.21 in 10.0 mi ESE 3.5 mph - N/A   Clear
11:14 AM 89.6 °F 42.3 °F 19% 30.21 in 10.0 mi South 3.5 mph - N/A   Clear
11:34 AM 90.1 °F 40.6 °F 18% 30.21 in 10.0 mi Calm Calm - N/A   Clear
11:54 AM 91.4 °F 40.5 °F 17% 30.20 in 5.0 mi NE 5.8 mph - N/A   Haze
12:14 PM 90.3 °F 39.7 °F 17% 30.20 in 10.0 mi NNE 3.5 mph - N/A   Clear
12:34 PM 92.3 °F 39.9 °F 16% 30.19 in 7.0 mi ENE 4.6 mph - N/A   Clear
12:54 PM 92.5 °F 39.7 °F 16% 30.19 in 10.0 mi ENE 5.8 mph - N/A   Clear
1:14 PM 93.6 °F 38.7 °F 15% 30.19 in 10.0 mi NE 3.5 mph - N/A   Clear
1:34 PM 93.2 °F 37.2 °F 14% 30.18 in 10.0 mi North 6.9 mph - N/A   Clear
1:54 PM 93.6 °F 36.5 °F 14% 30.18 in 10.0 mi Calm Calm - N/A   Clear
2:14 PM 94.3 °F 36.7 °F 13% 30.18 in 10.0 mi Calm Calm - N/A   Clear
2:34 PM 93.6 °F 37.8 °F 14% 30.18 in 10.0 mi NNW 4.6 mph - N/A   Clear
2:54 PM 95.0 °F 37.6 °F 13% 30.16 in 10.0 mi WNW 5.8 mph - N/A   Clear
3:14 PM 94.8 °F 37.2 °F 13% 30.16 in 10.0 mi Calm Calm - N/A   Clear
3:34 PM 95.0 °F 37.0 °F 13% 30.16 in 10.0 mi North 4.6 mph - N/A   Clear
3:54 PM 94.5 °F 38.5 °F 14% 30.16 in 10.0 mi NNW 6.9 mph - N/A   Clear
4:14 PM 94.5 °F 37.6 °F 14% 30.16 in 10.0 mi North 6.9 mph - N/A   Clear
4:34 PM 91.6 °F 39.7 °F 16% 30.16 in 10.0 mi NNW 6.9 mph - N/A   Clear
4:54 PM 93.2 °F 36.9 °F 14% 30.17 in 10.0 mi ENE 5.8 mph - N/A   Clear
5:14 PM 91.4 °F 36.7 °F 15% 30.17 in 10.0 mi NNE 3.5 mph - N/A   Clear
5:34 PM 85.6 °F 46.4 °F 25% 30.17 in 10.0 mi North 10.4 mph 17.3 mph N/A Thunderstorm Clear
5:54 PM 85.1 °F 48.0 °F 27% 30.19 in 10.0 mi NW 8.1 mph - N/A   Clear
6:14 PM 82.9 °F 45.5 °F 27% 30.20 in 10.0 mi WNW 13.8 mph 25.3 mph N/A Thunderstorm Clear
6:34 PM 81.7 °F 45.0 °F 27% 30.19 in 10.0 mi West 13.8 mph 19.6 mph N/A   Clear
6:54 PM 81.5 °F 44.6 °F 27% 30.19 in 10.0 mi West 11.5 mph - N/A   Clear
7:14 PM 80.8 °F 45.3 °F 29% 30.20 in 10.0 mi West 8.1 mph - N/A   Clear
7:34 PM 80.1 °F 45.5 °F 30% 30.20 in 10.0 mi WNW 9.2 mph - N/A   Scattered Clouds
7:54 PM 80.1 °F 44.2 °F 28% 30.21 in 10.0 mi WNW 8.1 mph - N/A   Clear
8:14 PM 80.1 °F 44.1 °F 28% 30.21 in 10.0 mi WNW 12.7 mph 17.3 mph N/A   Scattered Clouds
8:34 PM 82.6 °F 41.9 °F 24% 30.20 in 10.0 mi West 10.4 mph - N/A   Scattered Clouds
8:54 PM 83.3 °F 42.4 °F 24% 30.21 in 10.0 mi WNW 12.7 mph 18.4 mph N/A   Mostly Cloudy
9:14 PM 81.3 °F 43.9 °F 27% 30.22 in 10.0 mi NNE 6.9 mph - N/A   Scattered Clouds
9:34 PM 81.1 °F 43.2 °F 26% 30.22 in 10.0 mi WSW 4.6 mph - N/A   Clear
9:54 PM 79.5 °F 43.5 °F 28% 30.22 in 10.0 mi WSW 5.8 mph - N/A   Clear
10:14 PM 78.8 °F 44.4 °F 30% 30.21 in 10.0 mi Calm Calm - N/A   Clear
10:34 PM 77.5 °F 45.1 °F 32% 30.22 in 10.0 mi Calm Calm - N/A   Clear
10:54 PM 76.1 °F 45.1 °F 33% 30.22 in 10.0 mi North 4.6 mph - N/A   Clear
11:14 PM 73.4 °F 46.2 °F 38% 30.23 in 10.0 mi Calm Calm - N/A   Clear
11:34 PM 73.6 °F 46.6 °F 38% 30.22 in 10.0 mi Calm Calm - N/A   Clear
11:54 PM 70.7 °F 47.1 °F 43% 30.22 in 7.0 mi Calm Calm - N/A   Clear